Du Bois, PA

8:33 AM EST on December 15, 2019 (GMT -0500)
Du Bois-Jefferson County

Weather History for KDUJ - October, 2019

Change the Weather History Date:

Tuesday, October 15, 2019

  Actual Average Record
Temperature  
Mean Temperature 47 °F 49 °F  
Max Temperature 62 °F 59 °F 80 °F (1962)
Min Temperature 32 °F 40 °F 30 °F (2006)
Degree Days  
Heating Degree Days 18 16  
Month to date heating degree days 205  
Since 1 July heating degree days 451  
Cooling Degree Days 0 0  
Month to date cooling degree days 0  
Year to date cooling degree days 360  
Moisture  
Dew Point 35 °F    
Average Humidity 77    
Maximum Humidity 96    
Minimum Humidity 39    
Precipitation  
Precipitation 0.00 in 0.10 in 0.59 in (2014)
Month to date precipitation 1.55  
Year to date precipitation 34.79  
Sea Level Pressure  
Sea Level Pressure 30.10 in    
Wind  
Wind Speed 2 mph ()    
Max Wind Speed 9 mph    
Max Gust Speed -    
Visibility 6.6 miles    
Events      
T = Trace of Precipitation, MM = Missing Value Source: Averaged Metar Reports

Daily Weather History Graph

Daily Weather History Graph

Search for Another Location

Airport or City:

Astronomy

Oct. 15, 2019 Rise Set
Actual Time 7:26 AM EDT 6:35 PM EDT
Civil Twilight 6:59 AM EDT 7:02 PM EDT
Nautical Twilight 6:27 AM EDT 7:34 PM EDT
Astronomical Twilight 5:55 AM EDT 8:06 PM EDT
Moon 7:53 PM EDT 8:56 AM EDT
Length of Visible Light 12h 03m
Length of Day
11h 08m
Full, 97% of the Moon is Illuminated
Oct 15
Full
Oct 21
Last Quarter
Oct 27
New
Nov 4
First Quarter
Nov 12
Full

Hourly Weather History & Observations

Time (EDT) Temp. Windchill Dew Point Humidity Pressure Visibility Wind Dir Wind Speed Gust Speed Precip Events Conditions
12:53 AM 37.9 °F - 34.0 °F 86% 30.13 in 10.0 mi Calm Calm - N/A   Clear
1:53 AM 37.9 °F - 34.0 °F 86% 30.13 in 10.0 mi Calm Calm - N/A   Clear
2:53 AM 37.0 °F - 33.1 °F 86% 30.14 in 10.0 mi Calm Calm - N/A   Clear
3:53 AM 37.0 °F - 34.0 °F 89% 30.14 in 10.0 mi Calm Calm - N/A   Clear
4:53 AM 35.1 °F - 33.1 °F 92% 30.15 in 10.0 mi Calm Calm - N/A   Clear
5:45 AM 35.1 °F 32.2 °F 33.1 °F 92% 30.14 in 1.5 mi East 3.5 mph - N/A   Clear
5:53 AM 34.0 °F - 32.0 °F 92% 30.17 in 0.8 mi Calm Calm - N/A   Clear
6:07 AM 33.1 °F - 30.9 °F 92% 30.14 in 9.0 mi Calm Calm - N/A   Clear
6:20 AM 32.0 °F - 30.9 °F 96% 30.14 in 2.0 mi Calm Calm - N/A   Clear
6:27 AM 32.0 °F - 30.0 °F 92% 30.15 in 1.0 mi Calm Calm - N/A   Clear
6:35 AM 32.0 °F - 30.9 °F 96% 30.15 in 3.0 mi Calm Calm - N/A   Clear
6:51 AM 32.0 °F 28.7 °F 30.2 °F 93% 30.15 in 1.8 mi ESE 3.5 mph - N/A   Clear
6:53 AM 32.0 °F - 30.9 °F 96% 30.18 in 1.5 mi Calm Calm - N/A   Clear
7:11 AM 32.0 °F - 30.9 °F 96% 30.15 in 3.0 mi Calm Calm - N/A   Clear
7:49 AM 33.8 °F - 32.0 °F 93% 30.15 in 1.2 mi Calm Calm - N/A   Clear
7:53 AM 32.0 °F - 30.9 °F 96% 30.19 in 0.8 mi Calm Calm - N/A   Clear
8:03 AM 32.0 °F 28.7 °F 30.9 °F 96% 30.15 in 2.0 mi East 3.5 mph - N/A   Clear
8:20 AM 33.1 °F 30.0 °F 32.0 °F 96% 30.15 in 0.8 mi East 3.5 mph - N/A   Clear
8:37 AM 35.1 °F 30.1 °F 33.1 °F 92% 30.15 in 2.0 mi East 5.8 mph - N/A   Clear
8:45 AM 36.0 °F 31.1 °F 34.0 °F 93% 30.16 in 3.0 mi East 5.8 mph - N/A   Clear
8:53 AM 37.0 °F 32.4 °F 35.1 °F 93% 30.19 in 4.0 mi East 5.8 mph - N/A   Clear
9:53 AM 45.0 °F 43.5 °F 37.9 °F 76% 30.17 in 10.0 mi ESE 3.5 mph - N/A   Clear
10:53 AM 51.1 °F - 39.0 °F 63% 30.16 in 10.0 mi Variable 3.5 mph - N/A   Clear
11:53 AM 53.1 °F - 37.9 °F 57% 30.14 in 10.0 mi SSW 5.8 mph - N/A   Clear
12:53 PM 57.0 °F - 39.0 °F 51% 30.10 in 10.0 mi SSE 8.1 mph - N/A   Clear
1:53 PM 59.0 °F - 37.0 °F 44% 30.08 in 10.0 mi SSE 8.1 mph - N/A   Clear
2:53 PM 61.0 °F - 39.0 °F 44% 30.04 in 10.0 mi SSE 6.9 mph - N/A   Clear
3:53 PM 62.1 °F - 37.9 °F 41% 30.02 in 10.0 mi Variable 6.9 mph - N/A   Clear
4:53 PM 62.1 °F - 37.0 °F 39% 29.99 in 10.0 mi Variable 6.9 mph - N/A   Clear
5:53 PM 60.1 °F - 41.0 °F 49% 29.98 in 10.0 mi SE 6.9 mph - N/A   Clear
6:53 PM 55.0 °F - 39.9 °F 57% 29.98 in 10.0 mi SE 8.1 mph - N/A   Clear
7:53 PM 54.0 °F - 39.9 °F 59% 29.97 in 10.0 mi SE 6.9 mph - N/A   Clear
8:53 PM 52.0 °F - 39.0 °F 61% 29.95 in 10.0 mi SE 6.9 mph - N/A   Clear
9:53 PM 54.0 °F - 39.0 °F 57% 29.92 in 10.0 mi SE 8.1 mph - N/A   Clear
10:53 PM 53.1 °F - 39.9 °F 61% 29.91 in 10.0 mi SE 8.1 mph - N/A   Scattered Clouds
11:53 PM 53.1 °F - 39.0 °F 59% 29.88 in 10.0 mi SE 9.2 mph - N/A   Clear